Find Starlink 36082

NORAD ID: 66872 Int'l Des: 2025-281 Owner: SPXS Country: US Constellation: starlink operational
LEOCIRCULAR

Current View

Loading 3D Globe...

About Starlink 36082

Description loading...

Upcoming Passes

Passes for default location (London). Set your location on the main map for personalized predictions.

Altitude History

Loading altitude history...

Two-Line Element Set

1 66872U 25281AA 26149.69597853 .00019258 00000-0 70694-3 0 9995
2 66872 42.9998 246.0539 0001240 276.4933 83.5778 15.27606156 28560
Epoch: May 29, 2026 • Age: 23 hours

Current Status

Altitude 488.5 km
Velocity 7.62 km/s
Sub-Earth Point -25.46°S, 80.77°E
Launch Date Dec 2, 2025
Age 0.4 years
Type internet

Technical Details

Classification Payload
Mass 575.00 kg
Dry Mass 530.00 kg
Total Mass 575.00 kg
Length 0.30 m
Diameter 4.10 m
Span 29.00 m
Shape Box + pan
Manufacturer SPXS
Bus Type Starlink V2MO
Phase Status In Orbit
Owner/State SPXS/US

Most Searched